Theta_e
351 357 364 362 362 361 361 362 367 365 363 362 361 361 361 361 360 361 359 360 359 359 359 360 360 361 362 361 359 361 363 364 363 362 362 362 360 362 359 357 360 351 359
354 357 366 366 364 363 362 363 367 368 363 363 361 361 361 361 360 361 358 359 360 361 360 360 359 360 360 359 360 361 363 362 360 361 363 361 359 358 357 355 363 359 362
352 358 362 366 365 363 362 363 363 363 363 363 362 361 361 360 361 359 358 357 360 360 360 360 360 359 359 358 359 359 361 358 361 360 360 357 356 358 357 356 360 361 362
353 357 357 358 356 362 362 362 362 363 363 363 362 361 360 360 359 358 358 358 360 360 360 360 359 360 359 359 359 360 360 359 358 359 356 354 352 357 357 357 358 358 359
354 354 354 355 356 363 363 362 362 363 362 361 361 360 360 359 359 357 358 360 360 361 360 360 359 359 359 358 359 359 359 360 358 358 355 355 356 356 357 357 357 359 362
352 354 357 359 356 362 362 361 361 361 360 360 360 360 360 360 359 359 360 360 360 360 358 357 357 357 357 358 358 357 357 358 358 355 355 355 356 358 358 360 361 361 360
353 353 358 359 360 362 363 361 360 361 359 359 360 361 361 361 361 361 359 359 358 358 356 355 356 357 355 358 357 357 356 356 354 354 353 354 358 361 360 361 362 359 357
353 354 356 361 358 360 361 357 355 356 353 357 356 359 360 360 360 360 359 357 356 355 356 356 355 357 356 356 357 357 359 355 351 351 352 353 359 360 359 360 359 357 354
352 354 356 354 358 359 359 357 356 354 356 354 353 358 360 361 360 359 357 355 355 355 356 357 358 358 357 355 355 358 360 360 352 349 349 353 360 359 359 360 357 356 359
355 356 353 355 358 363 357 359 358 359 355 357 356 356 358 361 360 358 359 357 356 356 354 356 358 359 358 357 356 357 358 359 355 350 348 354 360 359 359 358 357 358 359
353 356 358 361 363 360 359 359 358 357 356 357 357 356 359 359 358 357 356 356 357 356 357 355 355 358 358 356 355 359 361 357 353 350 347 356 358 357 359 358 357 357 355
350 354 358 360 359 353 353 357 359 358 356 360 355 359 365 363 360 358 355 354 356 357 353 354 356 357 355 354 356 356 356 355 353 352 351 357 357 359 358 358 356 354 354
351 354 356 355 358 354 354 355 350 353 352 355 356 360 363 357 354 354 355 355 360 358 357 358 360 359 355 355 358 354 356 356 354 354 353 357 357 356 359 358 356 355 356
350 350 353 355 358 357 357 356 356 352 352 354 352 361 365 355 353 356 356 360 361 361 359 360 357 359 361 359 356 356 354 354 354 355 355 356 356 357 357 356 357 356 355
345 348 352 355 358 358 359 358 355 356 353 355 356 359 359 351 353 356 357 356 358 360 357 356 361 356 357 355 354 356 354 356 356 354 355 357 356 356 358 357 357 357 358
346 348 351 354 358 357 357 361 356 356 361 357 356 358 363 355 358 356 355 356 357 361 358 359 360 356 358 355 354 355 355 358 360 359 354 357 357 357 358 361 360 359 359
348 350 351 354 354 357 357 359 356 356 355 355 354 360 360 360 360 360 356 359 354 362 360 358 359 359 356 355 357 357 357 358 358 359 355 355 356 357 359 360 359 359 359
352 352 353 353 353 357 359 359 354 355 356 354 355 357 359 360 361 363 357 358 358 360 358 354 356 356 355 355 353 352 354 356 356 356 356 355 355 355 359 362 361 360 360
352 355 354 357 355 358 360 357 356 357 355 354 354 355 359 360 363 362 358 359 362 358 357 354 357 357 353 354 352 353 355 356 357 355 357 357 356 354 355 362 362 362 361
352 355 357 357 359 360 366 357 354 354 355 354 353 355 358 361 363 367 360 362 361 358 355 357 360 358 355 351 347 350 356 356 357 355 356 357 358 357 356 357 359 357 361
351 353 356 356 360 360 357 353 351 348 352 352 352 355 358 361 364 367 359 362 360 358 361 359 356 352 350 355 349 350 352 353 355 357 357 356 356 358 357 358 358 358 359
350 354 356 358 361 359 356 354 354 351 351 352 352 356 358 360 363 362 363 360 361 357 360 358 356 349 349 352 348 348 341 346 351 355 356 353 357 358 358 360 359 360 359
349 353 355 359 360 360 359 357 356 356 355 350 350 352 354 358 361 363 364 363 365 360 355 357 356 353 349 354 353 348 339 338 344 350 354 356 359 356 359 359 361 362 362
349 353 356 359 360 360 361 357 359 351 346 346 349 351 351 357 359 360 362 363 367 361 360 358 357 359 356 349 352 352 354 352 339 338 347 352 356 355 356 357 358 359 363
350 351 353 359 359 361 361 361 355 358 361 363 352 355 358 356 358 358 361 362 362 367 363 362 360 360 358 354 353 353 357 356 357 343 338 343 350 352 358 357 357 359 360
350 352 353 356 358 360 360 360 358 358 355 350 356 351 350 351 352 358 358 362 363 362 363 362 364 365 362 361 358 356 348 345 346 344 341 342 342 348 351 357 359 358 361
Wind_Speed
11 14 11 11 11 10 9 9 12 13 13 14 14 13 13 12 10 10 9 9 8 8 8 8 8 8 9 8 8 10 11 11 11 11 11 12 11 11 12 11 12 16 13
17 15 11 12 12 12 9 10 12 12 14 13 14 12 11 10 9 8 7 7 8 8 8 9 8 9 9 8 8 9 10 10 9 10 12 11 11 11 9 5 8 15 12
18 16 14 12 11 11 10 10 11 13 13 12 13 11 11 10 9 7 6 5 7 7 8 9 9 9 9 8 9 10 11 9 10 10 9 9 10 11 9 8 14 12 11
19 16 14 12 11 10 10 10 11 11 11 11 11 10 10 8 7 6 5 6 7 7 7 9 9 9 10 9 9 10 10 11 10 11 7 8 11 9 10 11 11 12 9
18 18 13 14 10 10 11 10 11 10 9 10 10 9 9 7 6 5 5 6 7 7 7 7 8 8 9 8 9 10 10 10 10 13 7 3 7 11 10 10 12 10 8
17 18 16 16 15 11 12 11 11 9 8 8 8 8 8 7 6 6 7 6 7 7 6 5 7 7 7 7 8 8 9 8 10 7 6 5 3 14 11 10 10 10 9
17 17 16 17 12 11 10 8 7 7 4 6 7 8 8 8 7 8 7 7 6 6 5 4 4 6 6 8 8 8 7 8 6 6 6 8 11 9 9 8 9 9 8
16 16 11 15 13 10 14 14 10 7 5 9 3 6 7 7 8 8 7 6 6 6 6 5 4 6 6 7 7 8 8 10 7 5 5 6 13 9 9 9 8 8 8
16 13 10 9 9 10 15 20 17 10 10 4 3 3 6 8 8 8 6 6 6 6 7 7 8 7 5 3 5 8 8 8 5 4 6 5 11 9 9 9 9 8 7
13 15 15 13 10 8 8 19 20 18 14 13 8 3 5 7 8 7 6 6 5 5 5 5 7 9 7 3 4 5 7 7 9 7 5 8 10 7 7 6 6 8 7
10 10 9 11 9 7 7 12 15 16 15 11 7 4 7 6 10 10 4 6 5 5 6 4 2 7 6 5 3 4 7 6 5 4 3 13 7 7 7 7 6 5 4
14 13 10 10 13 9 8 5 6 6 4 5 7 5 3 5 4 2 5 4 5 3 2 2 1 4 7 5 8 7 8 5 5 3 6 11 9 7 9 7 6 5 5
15 11 12 11 12 13 10 8 6 6 6 4 4 6 6 5 6 6 5 6 7 7 5 6 7 7 4 3 3 3 3 5 3 3 12 10 9 9 7 7 6 5 4
15 13 13 12 9 9 7 7 6 3 5 7 8 8 4 5 5 3 3 1 2 0 2 1 2 2 3 3 3 3 6 4 3 2 11 10 10 9 8 7 7 6 5
15 15 14 11 10 8 7 7 8 8 8 6 8 8 6 5 4 4 2 3 1 1 2 2 1 3 4 5 5 5 6 4 3 3 4 13 10 9 8 7 7 7 6
14 14 12 12 10 10 8 8 6 6 5 4 5 7 6 6 4 4 4 4 2 2 1 3 3 2 2 3 5 5 4 4 4 3 3 9 11 10 8 6 6 8 6
14 14 13 12 12 10 9 9 7 5 7 8 6 8 8 6 5 3 4 4 3 2 3 3 3 3 1 2 2 4 3 3 5 5 5 7 10 12 10 7 5 4 4
14 14 14 12 12 12 10 8 7 8 7 7 6 7 8 7 6 5 5 4 4 4 4 4 3 2 1 1 3 4 3 3 4 4 4 4 6 9 11 10 7 6 7
15 15 15 14 12 12 10 8 7 7 7 3 7 6 9 7 6 4 4 5 5 4 4 3 3 2 1 1 2 3 4 3 5 6 4 6 6 5 4 13 10 7 8
16 15 15 14 13 12 8 7 7 7 7 7 5 6 7 6 6 5 4 4 4 4 3 3 2 1 1 3 5 3 2 3 3 4 6 7 6 6 6 5 8 10 12
15 16 16 15 14 11 10 9 8 8 8 8 7 9 8 6 6 5 4 5 5 3 3 3 3 4 3 1 5 4 4 5 5 4 4 3 5 6 6 5 5 4 9
17 16 16 16 15 13 10 9 7 7 8 8 8 8 8 7 6 5 3 5 5 4 3 3 2 1 2 2 3 4 6 7 4 5 4 3 1 3 5 6 5 6 5
18 19 17 17 16 15 13 9 8 5 4 8 9 8 9 9 8 6 5 4 6 5 5 5 4 2 1 1 3 5 3 4 1 5 4 2 2 3 2 5 5 6 7
20 18 18 17 17 15 16 13 14 11 11 9 9 9 9 11 10 9 7 6 5 4 4 4 4 2 4 3 2 1 4 4 5 3 7 3 1 1 2 3 4 6 7
18 17 14 18 16 16 17 14 13 12 7 6 10 11 11 11 12 11 9 7 6 6 5 4 4 4 3 3 1 0 1 0 1 4 4 3 2 3 1 3 2 2 4
16 15 17 18 16 17 17 18 16 15 13 10 10 8 5 10 11 12 11 8 8 7 6 6 6 6 5 2 2 3 5 4 2 2 4 3 5 1 3 0 2 2 2
Wind_Direction
145 129 149 137 129 131 135 138 140 140 140 142 143 139 135 131 123 116 116 104 95 101 106 111 117 118 117 115 108 106 119 125 124 120 127 121 117 107 110 133 148 110 115
143 139 145 136 136 131 129 132 142 142 148 150 148 148 145 144 140 131 114 97 97 101 112 112 114 117 120 116 115 114 130 129 131 125 121 127 126 121 133 153 92 111 119
138 137 141 129 130 136 139 129 138 146 151 145 147 150 144 150 142 141 114 105 106 111 114 111 107 109 111 116 108 108 126 124 127 130 160 143 126 134 142 118 110 115 108
141 139 133 136 140 142 148 142 131 138 150 146 140 143 145 148 153 146 122 110 114 113 110 105 102 103 110 113 112 113 120 138 148 148 215 154 133 142 146 133 130 127 130
138 141 136 144 157 163 154 148 141 136 138 138 137 150 148 159 162 141 130 121 130 116 113 111 109 105 112 123 122 120 121 128 150 196 139 208 140 136 155 146 142 150 161
149 133 147 161 167 178 163 149 139 138 148 151 146 160 154 164 153 148 129 149 129 114 109 111 111 117 121 132 139 126 126 138 178 152 155 137 252 136 159 177 119 122 123
154 133 156 163 175 166 149 121 123 134 132 164 166 178 168 157 153 132 151 133 137 142 135 128 135 134 140 141 157 153 150 171 183 162 167 182 106 144 162 155 141 145 149
147 158 142 162 178 155 119 100 98 102 69 333 184 177 164 145 141 145 137 147 142 143 144 132 149 154 163 169 174 167 165 191 181 150 161 180 118 158 173 165 161 165 167
146 151 158 166 163 149 142 152 154 166 145 206 168 214 159 150 150 134 152 159 165 165 157 146 134 135 135 168 187 189 191 190 193 183 182 202 129 176 180 176 180 179 177
152 157 177 179 154 140 143 152 160 162 180 194 188 232 171 155 153 154 167 180 177 160 150 145 148 148 136 94 131 171 187 202 234 168 220 94 134 173 177 187 183 189 166
168 166 162 150 158 140 141 162 165 173 190 189 173 182 197 198 169 168 106 154 172 156 112 101 97 157 157 151 133 150 186 196 189 187 177 112 149 185 180 166 170 159 163
173 180 165 169 158 146 146 129 140 174 200 177 199 184 189 213 150 229 148 181 170 134 198 164 270 166 220 207 157 182 222 170 212 172 94 136 170 185 178 179 178 186 203
174 175 163 170 171 170 161 166 181 197 198 156 186 224 181 194 188 201 170 189 179 176 230 193 174 217 179 236 210 205 124 196 175 198 103 156 186 191 184 173 184 204 221
171 178 174 168 181 183 168 172 202 202 235 178 188 198 191 215 184 208 207 133 216 67 51 222 120 26 218 199 180 145 209 217 200 165 124 169 194 200 192 187 191 200 212
178 179 181 173 182 174 206 158 200 186 197 217 145 197 203 209 203 202 123 219 24 94 93 167 144 139 160 193 176 185 194 191 263 236 143 169 195 204 205 197 203 211 218
182 180 183 186 183 180 199 180 186 201 218 112 203 200 193 237 194 167 188 209 195 161 139 120 52 63 189 234 181 210 208 180 180 174 174 155 189 200 211 227 233 218 220
184 178 186 195 186 186 193 186 196 185 205 192 204 185 214 218 186 248 206 211 178 192 235 197 214 198 211 176 187 181 190 159 149 163 207 156 162 197 204 217 236 260 230
184 178 187 193 187 183 188 187 197 187 201 185 196 181 205 205 233 200 220 170 176 208 216 216 207 187 102 154 164 165 205 217 150 194 212 205 176 177 190 206 218 244 240
189 181 189 189 191 184 179 190 201 191 198 172 200 208 192 209 202 222 214 138 187 203 208 220 193 252 190 240 245 218 206 218 187 185 187 202 182 221 189 167 188 218 236
181 186 194 190 188 187 178 189 199 170 216 173 217 238 186 208 207 195 152 147 216 192 203 197 248 177 271 300 271 267 223 187 211 205 193 198 180 196 206 200 178 202 207
191 190 196 195 185 187 188 191 197 202 189 204 218 200 211 221 199 196 158 166 188 226 301 191 199 184 206 234 260 194 149 185 187 181 192 197 166 201 187 206 227 234 176
186 192 192 197 185 193 192 198 203 210 195 203 204 208 219 215 212 208 201 168 184 158 188 180 251 176 214 7 327 251 167 166 141 141 142 138 100 176 196 204 231 222 247
188 191 191 195 188 196 197 191 189 183 206 203 202 205 205 217 223 222 201 249 170 218 180 190 199 240 116 107 326 328 243 84 170 131 153 180 164 175 223 215 224 222 219
193 192 189 192 192 196 195 190 196 202 205 199 212 209 208 208 215 224 222 222 207 205 174 180 189 252 269 87 194 43 4 0 344 151 137 99 131 56 18 243 212 218 217
193 187 184 188 192 193 192 206 198 214 213 212 200 220 214 197 218 219 222 219 231 234 178 171 176 203 188 307 312 154 38 281 148 312 342 55 193 124 46 295 293 274 245
193 176 186 191 191 197 195 202 205 200 207 199 213 200 222 212 202 216 221 219 224 232 218 202 195 200 257 261 296 337 323 320 327 286 273 290 343 279 346 71 274 294 295